Weather History for KNJK - September, 2012

Change the Weather History Date:

Wednesday, September 12, 2012

  Actual Average (KCZZ) Record (KCZZ)
Temperature  
Mean Temperature 88 °F 70 °F  
Max Temperature 98 °F 91 °F 105 °F (1990)
Min Temperature 78 °F 50 °F 30 °F (1985)
Degree Days  
Heating Degree Days 0 1  
Month to date heating degree days 10  
Since 1 July heating degree days 24  
Cooling Degree Days 22 6  
Month to date cooling degree days 85  
Year to date cooling degree days 735  
Growing Degree Days 38 (Base 50)    
Moisture  
Dew Point 68 °F    
Average Humidity 55    
Maximum Humidity 84    
Minimum Humidity 36    
Precipitation  
Precipitation 0.00 in 0.01 in 0.24 in (1960)
Month to date precipitation 0.15  
Year to date precipitation 11.32  
Since 1 July precipitation 1.17  
Snow  
Snow 0.00 in - - ()
Month to date snowfall  
Year to date snowfall  
Since 1 July snowfall  
Snow Depth -    
Sea Level Pressure  
Sea Level Pressure 29.93 in    
Wind  
Wind Speed 3 mph (SE)    
Max Wind Speed 7 mph    
Max Gust Speed -    
Visibility 10 miles    
Events      
T = Trace of Precipitation, MM = Missing Value Source: NWS Daily Summary

Daily Weather History Graph

Daily Weather History Graph

Search for Another Location

Airport or City:

Trip Planner

Search our weather history database for the weather conditions in past years. The results will help you decide how hot, cold, wet, or windy it might be!

Date:

Astronomy

Sep. 12, 2012 Rise Set
Actual Time 6:24 AM PDT 6:52 PM PDT
Civil Twilight 5:59 AM PDT 7:16 PM PDT
Nautical Twilight 5:30 AM PDT 7:45 PM PDT
Astronomical Twilight 5:01 AM PDT 8:15 PM PDT
Moon 2:55 AM PDT (9/12) 4:35 PM PDT (9/12)
Length of Visible Light 13h 16m
Length of Day
12h 27m
Waning Crescent, 13% of the Moon is Illuminated
Sep 12
Waning Crescent
Sep 15
New
Sep 22
First Quarter
Sep 29
Full
Oct 8
Last Quarter

Hourly Weather History & Observations

Time (PDT) Temp. Heat Index Dew Point Humidity Pressure Visibility Wind Dir Wind Speed Gust Speed Precip Events Conditions
12:56 AM 81.0 °F 85.2 °F 72.0 °F 74% 29.91 in 10.0 mi SSE 5.8 mph - N/A   Clear
1:56 AM 79.0 °F - 72.0 °F 79% 29.91 in 10.0 mi ESE 3.5 mph - N/A   Clear
2:56 AM 79.0 °F - 70.0 °F 74% 29.91 in 10.0 mi Calm Calm - N/A   Clear
4:56 AM 79.0 °F - 73.0 °F 82% 29.93 in 10.0 mi Calm Calm - N/A   Mostly Cloudy
5:56 AM 78.1 °F - 73.0 °F 84% 29.94 in 10.0 mi ESE 3.5 mph - N/A   Clear
6:56 AM 78.1 °F - 71.1 °F 79% 29.97 in 10.0 mi Calm Calm - N/A   Partly Cloudy
7:56 AM 81.0 °F 86.2 °F 73.9 °F 79% 29.98 in 10.0 mi Calm Calm - N/A   Clear
8:56 AM 84.0 °F 90.2 °F 73.0 °F 69% 29.99 in 10.0 mi Calm Calm - N/A   Partly Cloudy
9:56 AM 88.0 °F 92.9 °F 70.0 °F 55% 30.00 in 10.0 mi ENE 6.9 mph - N/A   Scattered Clouds
10:56 AM 91.0 °F 96.6 °F 70.0 °F 50% 29.99 in 10.0 mi NNE 4.6 mph - N/A   Scattered Clouds
11:56 AM 93.9 °F 97.5 °F 66.9 °F 41% 29.97 in 10.0 mi Variable 4.6 mph - N/A   Partly Cloudy
12:56 PM 95.0 °F 99.0 °F 66.9 °F 40% 29.96 in 10.0 mi Calm Calm - N/A   Scattered Clouds
1:56 PM 95.0 °F 97.9 °F 66.0 °F 38% 29.93 in 10.0 mi East 5.8 mph - N/A   Scattered Clouds
2:56 PM 97.0 °F 100.4 °F 66.0 °F 36% 29.90 in 10.0 mi North 4.6 mph - N/A   Scattered Clouds
3:55 PM - - - N/A% - - North - - N/A   Unknown
3:56 PM 96.1 °F 99.3 °F 66.0 °F 37% 29.88 in 10.0 mi Variable 4.6 mph - N/A   Partly Cloudy
4:56 PM 97.0 °F 100.4 °F 66.0 °F 36% 29.87 in 10.0 mi East 3.5 mph - N/A   Partly Cloudy
5:56 PM 96.1 °F 98.8 °F 64.9 °F 36% 29.87 in 10.0 mi South 3.5 mph - N/A   Clear
6:56 PM 93.0 °F 95.0 °F 64.9 °F 39% 29.87 in 10.0 mi South 4.6 mph - N/A   Clear
7:56 PM 91.9 °F 94.1 °F 64.9 °F 41% 29.89 in 10.0 mi South 4.6 mph - N/A   Clear
8:56 PM 91.0 °F 93.0 °F 64.9 °F 42% 29.91 in 10.0 mi South 3.5 mph - 0.00 in   Clear
9:56 PM 89.1 °F 91.0 °F 64.9 °F 45% 29.91 in 10.0 mi Calm Calm - N/A   Clear
10:56 PM 86.0 °F 87.3 °F 64.0 °F 48% 29.91 in 10.0 mi WSW 5.8 mph - N/A   Clear
11:56 PM 84.0 °F 86.3 °F 66.0 °F 55% 29.91 in 10.0 mi WNW 3.5 mph - N/A   Clear